Time,TemperatureF,DewpointF,PressureIn,WindDirection,WindDirectionDegrees,WindSpeedMPH,WindSpeedGustMPH,Humidity,HourlyPrecipIn,Conditions,Clouds,dailyrainin,SoftwareType,DateUTC
2013-02-12 00:01:00,41.0,37.7,30.09,West,270,0.0,0.0,88,0.00,,,0.00,WUHU21623XXSP,2013-02-12 05:01:00,
2013-02-12 00:06:00,40.8,37.2,30.08,West,270,0.0,0.0,87,0.00,,,0.00,WUHU21623XXSP,2013-02-12 05:06:00,
2013-02-12 00:11:00,40.6,37.3,30.08,West,270,0.0,0.0,88,0.00,,,0.00,WUHU21623XXSP,2013-02-12 05:11:00,
2013-02-12 00:16:00,40.6,37.3,30.09,West,270,0.0,0.0,88,0.00,,,0.00,WUHU21623XXSP,2013-02-12 05:16:00,
2013-02-12 00:22:00,40.6,37.3,30.09,West,270,0.0,0.0,88,0.00,,,0.00,WUHU21623XXSP,2013-02-12 05:22:00,
2013-02-12 00:27:00,40.6,37.3,30.09,West,270,0.0,0.0,88,0.00,,,0.00,WUHU21623XXSP,2013-02-12 05:27:00,
2013-02-12 00:32:00,40.8,37.5,30.09,West,270,0.0,0.0,88,0.00,,,0.00,WUHU21623XXSP,2013-02-12 05:32:00,
2013-02-12 00:37:00,40.8,37.5,30.09,West,270,0.0,0.0,88,0.00,,,0.00,WUHU21623XXSP,2013-02-12 05:37:00,
2013-02-12 00:42:00,40.6,37.3,30.09,West,270,0.0,0.0,88,0.00,,,0.00,WUHU21623XXSP,2013-02-12 05:42:00,
2013-02-12 00:47:00,40.6,37.3,30.09,West,270,0.0,0.0,88,0.00,,,0.00,WUHU21623XXSP,2013-02-12 05:47:00,
2013-02-12 00:53:00,40.3,37.0,30.09,West,270,0.0,0.0,88,0.00,,,0.00,WUHU21623XXSP,2013-02-12 05:53:00,
2013-02-12 00:58:00,40.1,36.8,30.09,West,270,0.0,0.0,88,0.00,,,0.00,WUHU21623XXSP,2013-02-12 05:58:00,
2013-02-12 01:04:00,40.1,36.8,30.09,West,270,0.0,0.0,88,0.00,,,0.00,WUHU21623XXSP,2013-02-12 06:04:00,
2013-02-12 01:09:00,39.9,36.6,30.09,West,270,0.0,0.0,88,0.00,,,0.00,WUHU21623XXSP,2013-02-12 06:09:00,
2013-02-12 01:14:00,39.9,36.6,30.08,West,270,0.0,0.0,88,0.00,,,0.00,WUHU21623XXSP,2013-02-12 06:14:00,
2013-02-12 01:19:00,39.9,36.6,30.08,West,270,0.0,0.0,88,0.00,,,0.00,WUHU21623XXSP,2013-02-12 06:19:00,
2013-02-12 01:24:00,40.1,36.8,30.09,West,270,0.0,0.0,88,0.00,,,0.00,WUHU21623XXSP,2013-02-12 06:24:00,
2013-02-12 01:29:00,39.9,36.6,30.09,West,270,0.0,0.0,88,0.00,,,0.00,WUHU21623XXSP,2013-02-12 06:29:00,
2013-02-12 01:34:00,39.9,36.6,30.08,West,270,0.0,0.0,88,0.00,,,0.00,WUHU21623XXSP,2013-02-12 06:34:00,
2013-02-12 01:39:00,39.9,36.6,30.08,West,270,0.0,0.0,88,0.00,,,0.00,WUHU21623XXSP,2013-02-12 06:39:00,
2013-02-12 01:44:00,40.1,36.8,30.07,West,270,0.0,0.0,88,0.00,,,0.00,WUHU21623XXSP,2013-02-12 06:44:00,
2013-02-12 01:49:00,40.1,36.8,30.08,West,270,0.0,0.0,88,0.00,,,0.00,WUHU21623XXSP,2013-02-12 06:49:00,
2013-02-12 01:54:00,39.9,36.6,30.08,West,270,0.0,0.0,88,0.00,,,0.00,WUHU21623XXSP,2013-02-12 06:54:00,
2013-02-12 01:59:00,40.1,36.8,30.09,West,270,0.0,0.0,88,0.00,,,0.00,WUHU21623XXSP,2013-02-12 06:59:00,
2013-02-12 02:04:00,40.1,36.6,30.09,West,270,0.0,0.0,88,0.00,,,0.00,WUHU21623XXSP,2013-02-12 07:04:00,
2013-02-12 02:09:00,39.9,36.6,30.09,West,270,0.0,0.0,88,0.00,,,0.00,WUHU21623XXSP,2013-02-12 07:09:00,
2013-02-12 02:14:00,39.9,36.6,30.08,West,270,0.0,0.0,88,0.00,,,0.00,WUHU21623XXSP,2013-02-12 07:14:00,
2013-02-12 02:19:00,39.9,36.6,30.07,West,270,0.0,0.0,88,0.00,,,0.00,WUHU21623XXSP,2013-02-12 07:19:00,
2013-02-12 02:25:00,39.7,36.4,30.08,West,270,0.0,0.0,88,0.00,,,0.00,WUHU21623XXSP,2013-02-12 07:25:00,
2013-02-12 02:30:00,39.6,36.3,30.09,West,270,0.0,0.0,88,0.00,,,0.00,WUHU21623XXSP,2013-02-12 07:30:00,
2013-02-12 02:35:00,39.4,36.1,30.09,West,270,0.0,0.0,88,0.00,,,0.00,WUHU21623XXSP,2013-02-12 07:35:00,
2013-02-12 02:40:00,39.4,36.1,30.08,West,270,0.0,0.0,88,0.00,,,0.00,WUHU21623XXSP,2013-02-12 07:40:00,
2013-02-12 02:45:00,39.4,36.1,30.07,West,270,0.0,0.0,88,0.00,,,0.00,WUHU21623XXSP,2013-02-12 07:45:00,
2013-02-12 02:50:00,39.2,35.9,30.07,West,270,0.0,0.0,88,0.00,,,0.00,WUHU21623XXSP,2013-02-12 07:50:00,
2013-02-12 02:55:00,39.2,35.9,30.07,West,270,0.0,0.0,88,0.00,,,0.00,WUHU21623XXSP,2013-02-12 07:55:00,
2013-02-12 03:00:00,39.0,35.9,30.08,West,270,0.0,0.0,88,0.00,,,0.00,WUHU21623XXSP,2013-02-12 08:00:00,
2013-02-12 03:05:00,39.0,35.7,30.08,West,270,0.0,0.0,88,0.00,,,0.00,WUHU21623XXSP,2013-02-12 08:05:00,
2013-02-12 03:10:00,39.0,35.7,30.08,West,270,0.0,0.0,88,0.00,,,0.00,WUHU21623XXSP,2013-02-12 08:10:00,
2013-02-12 03:15:00,38.8,35.6,30.07,West,270,0.0,0.0,88,0.00,,,0.00,WUHU21623XXSP,2013-02-12 08:15:00,
2013-02-12 03:20:00,38.8,35.6,30.08,West,270,0.0,0.0,88,0.00,,,0.00,WUHU21623XXSP,2013-02-12 08:20:00,
2013-02-12 03:25:00,38.8,35.6,30.08,West,270,0.0,0.0,88,0.00,,,0.00,WUHU21623XXSP,2013-02-12 08:25:00,
2013-02-12 03:30:00,38.8,35.6,30.08,West,270,0.0,0.0,88,0.00,,,0.00,WUHU21623XXSP,2013-02-12 08:30:00,
2013-02-12 03:35:00,38.8,35.6,30.09,West,270,0.0,0.0,88,0.00,,,0.00,WUHU21623XXSP,2013-02-12 08:35:00,
2013-02-12 03:40:00,38.8,35.6,30.09,West,270,0.0,0.0,88,0.00,,,0.00,WUHU21623XXSP,2013-02-12 08:40:00,
2013-02-12 03:45:00,38.7,35.6,30.08,West,270,0.0,0.0,88,0.00,,,0.00,WUHU21623XXSP,2013-02-12 08:45:00,
2013-02-12 03:51:00,38.5,35.2,30.09,West,270,0.0,0.0,88,0.00,,,0.00,WUHU21623XXSP,2013-02-12 08:51:00,
2013-02-12 03:58:00,38.5,35.2,30.08,West,270,0.0,0.0,88,0.00,,,0.00,WUHU21623XXSP,2013-02-12 08:58:00,
2013-02-12 04:03:00,38.5,35.2,30.08,West,270,0.0,0.0,88,0.00,,,0.00,WUHU21623XXSP,2013-02-12 09:03:00,
2013-02-12 04:08:00,38.3,35.0,30.07,West,270,0.0,0.0,88,0.00,,,0.00,WUHU21623XXSP,2013-02-12 09:08:00,
2013-02-12 04:13:00,37.9,34.8,30.07,West,270,0.0,0.0,88,0.00,,,0.00,WUHU21623XXSP,2013-02-12 09:13:00,
2013-02-12 04:18:00,37.9,34.7,30.07,West,270,0.0,0.0,88,0.00,,,0.00,WUHU21623XXSP,2013-02-12 09:18:00,
2013-02-12 04:23:00,38.1,34.8,30.07,West,270,0.0,0.0,88,0.00,,,0.00,WUHU21623XXSP,2013-02-12 09:23:00,
2013-02-12 04:28:00,37.9,34.7,30.08,West,270,0.0,0.0,88,0.00,,,0.00,WUHU21623XXSP,2013-02-12 09:28:00,
2013-02-12 04:33:00,37.9,34.7,30.08,West,270,0.0,0.0,88,0.00,,,0.00,WUHU21623XXSP,2013-02-12 09:33:00,
2013-02-12 04:38:00,37.8,34.7,30.09,West,270,0.0,0.0,88,0.00,,,0.00,WUHU21623XXSP,2013-02-12 09:38:00,
2013-02-12 04:43:00,37.6,34.3,30.08,West,270,0.0,0.0,88,0.00,,,0.00,WUHU21623XXSP,2013-02-12 09:43:00,
2013-02-12 04:48:00,37.2,33.9,30.07,West,270,0.0,0.0,88,0.00,,,0.00,WUHU21623XXSP,2013-02-12 09:48:00,
2013-02-12 04:53:00,37.2,33.9,30.07,West,270,0.0,0.0,88,0.00,,,0.00,WUHU21623XXSP,2013-02-12 09:53:00,
2013-02-12 04:58:00,37.0,33.9,30.06,West,270,0.0,0.0,88,0.00,,,0.00,WUHU21623XXSP,2013-02-12 09:58:00,
2013-02-12 05:03:00,37.0,33.8,30.07,West,270,0.0,0.0,88,0.00,,,0.00,WUHU21623XXSP,2013-02-12 10:03:00,
2013-02-12 05:08:00,36.9,33.6,30.07,West,270,0.0,0.0,88,0.00,,,0.00,WUHU21623XXSP,2013-02-12 10:08:00,
2013-02-12 05:13:00,36.5,33.2,30.08,West,270,0.0,0.0,88,0.00,,,0.00,WUHU21623XXSP,2013-02-12 10:13:00,
2013-02-12 05:18:00,36.5,33.2,30.08,West,270,0.0,0.0,88,0.00,,,0.00,WUHU21623XXSP,2013-02-12 10:18:00,
2013-02-12 05:23:00,36.5,33.2,30.08,West,270,0.0,0.0,88,0.00,,,0.00,WUHU21623XXSP,2013-02-12 10:23:00,
2013-02-12 05:28:00,36.7,33.2,30.07,West,270,0.0,0.0,88,0.00,,,0.00,WUHU21623XXSP,2013-02-12 10:28:00,
2013-02-12 05:33:00,36.9,33.9,30.07,West,270,0.0,0.0,89,0.00,,,0.00,WUHU21623XXSP,2013-02-12 10:33:00,
2013-02-12 05:38:00,37.0,33.9,30.07,West,270,0.0,0.0,89,0.00,,,0.00,WUHU21623XXSP,2013-02-12 10:38:00,
2013-02-12 05:43:00,37.2,34.2,30.08,West,270,0.0,0.0,89,0.00,,,0.00,WUHU21623XXSP,2013-02-12 10:43:00,
2013-02-12 05:48:00,37.2,34.2,30.07,West,270,0.0,0.0,89,0.00,,,0.00,WUHU21623XXSP,2013-02-12 10:48:00,
2013-02-12 05:53:00,37.2,34.2,30.07,West,270,0.0,0.0,89,0.00,,,0.00,WUHU21623XXSP,2013-02-12 10:53:00,
2013-02-12 05:58:00,37.2,34.2,30.06,West,270,0.0,0.0,89,0.00,,,0.00,WUHU21623XXSP,2013-02-12 10:58:00,
2013-02-12 06:03:00,37.0,34.1,30.06,West,270,0.0,0.0,89,0.00,,,0.00,WUHU21623XXSP,2013-02-12 11:03:00,
2013-02-12 06:08:00,36.7,33.7,30.07,West,270,0.0,0.0,89,0.00,,,0.00,WUHU21623XXSP,2013-02-12 11:08:00,
2013-02-12 06:13:00,36.7,33.4,30.07,West,270,0.0,0.0,88,0.00,,,0.00,WUHU21623XXSP,2013-02-12 11:13:00,
2013-02-12 06:18:00,36.5,33.2,30.09,West,270,0.0,0.0,88,0.00,,,0.00,WUHU21623XXSP,2013-02-12 11:18:00,
2013-02-12 06:23:00,36.3,33.0,30.10,West,270,0.0,0.0,88,0.00,,,0.00,WUHU21623XXSP,2013-02-12 11:23:00,
2013-02-12 06:28:00,36.1,32.9,30.10,West,270,0.0,0.0,88,0.00,,,0.00,WUHU21623XXSP,2013-02-12 11:28:00,
2013-02-12 06:33:00,36.0,32.7,30.10,West,270,0.0,0.0,88,0.00,,,0.00,WUHU21623XXSP,2013-02-12 11:33:00,
2013-02-12 06:38:00,35.8,32.5,30.10,West,270,0.0,0.0,88,0.00,,,0.00,WUHU21623XXSP,2013-02-12 11:38:00,
2013-02-12 06:43:00,35.4,32.5,30.09,West,270,0.0,0.0,88,0.00,,,0.00,WUHU21623XXSP,2013-02-12 11:43:00,
2013-02-12 06:50:00,35.4,32.1,30.11,West,270,0.0,0.0,88,0.00,,,0.00,WUHU21623XXSP,2013-02-12 11:50:00,
2013-02-12 06:55:00,35.4,32.1,30.10,West,270,0.0,0.0,88,0.00,,,0.00,WUHU21623XXSP,2013-02-12 11:55:00,
2013-02-12 07:00:00,35.2,32.1,30.09,West,270,0.0,0.0,88,0.00,,,0.00,WUHU21623XXSP,2013-02-12 12:00:00,
2013-02-12 07:05:00,35.2,32.0,30.10,West,270,0.0,0.0,88,0.00,,,0.00,WUHU21623XXSP,2013-02-12 12:05:00,
2013-02-12 07:10:00,35.2,32.0,30.09,West,270,0.0,0.0,88,0.00,,,0.00,WUHU21623XXSP,2013-02-12 12:10:00,
2013-02-12 07:15:00,35.2,32.0,30.10,West,270,0.0,0.0,88,0.00,,,0.00,WUHU21623XXSP,2013-02-12 12:15:00,
2013-02-12 07:20:00,35.2,32.0,30.09,West,270,0.0,0.0,88,0.00,,,0.00,WUHU21623XXSP,2013-02-12 12:20:00,
2013-02-12 07:26:00,35.4,32.1,30.09,West,270,0.0,0.0,88,0.00,,,0.00,WUHU21623XXSP,2013-02-12 12:26:00,
2013-02-12 07:31:00,35.4,32.1,30.10,West,270,0.0,0.0,88,0.00,,,0.00,WUHU21623XXSP,2013-02-12 12:31:00,
2013-02-12 07:36:00,35.2,32.0,30.11,West,270,0.0,0.0,88,0.00,,,0.00,WUHU21623XXSP,2013-02-12 12:36:00,
2013-02-12 07:41:00,35.2,32.1,30.10,West,270,0.0,0.0,88,0.00,,,0.00,WUHU21623XXSP,2013-02-12 12:41:00,
2013-02-12 07:46:00,35.2,32.0,30.09,West,270,0.0,0.0,88,0.00,,,0.00,WUHU21623XXSP,2013-02-12 12:46:00,
2013-02-12 07:51:00,35.2,32.0,30.09,West,270,0.0,0.0,88,0.00,,,0.00,WUHU21623XXSP,2013-02-12 12:51:00,
2013-02-12 07:56:00,35.4,32.1,30.09,West,270,0.0,0.0,88,0.00,,,0.00,WUHU21623XXSP,2013-02-12 12:56:00,
2013-02-12 08:01:00,35.6,32.1,30.11,West,270,0.0,0.0,88,0.00,,,0.00,WUHU21623XXSP,2013-02-12 13:01:00,
2013-02-12 08:06:00,35.8,32.5,30.11,West,270,0.0,0.0,88,0.00,,,0.00,WUHU21623XXSP,2013-02-12 13:06:00,
2013-02-12 08:11:00,35.8,32.5,30.10,West,270,0.0,0.0,88,0.00,,,0.00,WUHU21623XXSP,2013-02-12 13:11:00,
2013-02-12 08:16:00,36.0,33.0,30.10,West,270,0.0,0.0,89,0.00,,,0.00,WUHU21623XXSP,2013-02-12 13:16:00,
2013-02-12 08:21:00,36.1,33.2,30.11,West,270,0.0,0.0,89,0.00,,,0.00,WUHU21623XXSP,2013-02-12 13:21:00,
2013-02-12 08:26:00,36.3,33.2,30.11,West,270,0.0,0.0,89,0.00,,,0.00,WUHU21623XXSP,2013-02-12 13:26:00,
2013-02-12 08:31:00,36.3,33.3,30.10,West,270,0.0,0.0,89,0.00,,,0.00,WUHU21623XXSP,2013-02-12 13:31:00,
2013-02-12 08:36:00,36.3,33.3,30.10,West,270,0.0,0.0,88,0.00,,,0.00,WUHU21623XXSP,2013-02-12 13:36:00,
2013-02-12 08:42:00,36.9,33.9,30.09,West,270,0.0,0.0,89,0.00,,,0.00,WUHU21623XXSP,2013-02-12 13:42:00,
2013-02-12 08:47:00,37.2,34.2,30.09,West,270,0.0,0.0,89,0.00,,,0.00,WUHU21623XXSP,2013-02-12 13:47:00,
2013-02-12 08:52:00,37.9,35.0,30.10,West,270,0.0,0.0,89,0.00,,,0.00,WUHU21623XXSP,2013-02-12 13:52:00,
2013-02-12 08:57:00,38.5,35.5,30.10,West,270,0.0,0.0,89,0.00,,,0.00,WUHU21623XXSP,2013-02-12 13:57:00,
2013-02-12 09:02:00,39.0,36.0,30.10,West,270,0.0,0.0,89,0.00,,,0.00,WUHU21623XXSP,2013-02-12 14:02:00,
2013-02-12 09:07:00,39.4,36.4,30.10,West,270,0.0,0.0,89,0.00,,,0.00,WUHU21623XXSP,2013-02-12 14:07:00,
2013-02-12 09:12:00,39.7,36.3,30.09,West,270,0.0,0.0,88,0.00,,,0.00,WUHU21623XXSP,2013-02-12 14:12:00,
2013-02-12 09:17:00,39.9,36.6,30.09,West,270,0.0,0.0,88,0.00,,,0.00,WUHU21623XXSP,2013-02-12 14:17:00,
2013-02-12 09:22:00,40.6,37.3,30.09,West,270,0.0,0.0,88,0.00,,,0.00,WUHU21623XXSP,2013-02-12 14:22:00,
2013-02-12 09:27:00,41.4,37.7,30.09,West,270,0.0,0.0,88,0.00,,,0.00,WUHU21623XXSP,2013-02-12 14:27:00,
2013-02-12 09:32:00,41.7,38.1,30.09,West,270,0.0,0.0,87,0.00,,,0.00,WUHU21623XXSP,2013-02-12 14:32:00,
2013-02-12 09:37:00,42.1,38.3,30.08,West,270,0.0,0.0,86,0.00,,,0.00,WUHU21623XXSP,2013-02-12 14:37:00,
2013-02-12 09:42:00,42.8,38.7,30.07,West,270,0.0,0.0,85,0.00,,,0.00,WUHU21623XXSP,2013-02-12 14:42:00,
2013-02-12 09:47:00,43.2,38.6,30.07,West,270,0.0,0.0,84,0.00,,,0.00,WUHU21623XXSP,2013-02-12 14:47:00,
2013-02-12 09:52:00,43.5,38.7,30.07,West,270,0.0,0.0,83,0.00,,,0.00,WUHU21623XXSP,2013-02-12 14:52:00,
2013-02-12 09:57:00,44.2,38.8,30.07,West,270,0.0,0.0,81,0.00,,,0.00,WUHU21623XXSP,2013-02-12 14:57:00,
2013-02-12 10:02:00,44.6,38.7,30.07,West,270,0.0,0.0,80,0.00,,,0.00,WUHU21623XXSP,2013-02-12 15:02:00,
2013-02-12 10:07:00,45.3,39.4,30.08,West,270,0.0,0.0,78,0.00,,,0.00,WUHU21623XXSP,2013-02-12 15:07:00,
2013-02-12 10:12:00,46.0,39.6,30.08,West,270,0.0,0.0,78,0.00,,,0.00,WUHU21623XXSP,2013-02-12 15:12:00,
2013-02-12 10:17:00,46.4,39.3,30.07,West,270,0.0,0.0,76,0.00,,,0.00,WUHU21623XXSP,2013-02-12 15:17:00,
2013-02-12 10:22:00,47.3,39.9,30.07,West,270,0.0,0.0,75,0.00,,,0.00,WUHU21623XXSP,2013-02-12 15:22:00,
2013-02-12 10:27:00,48.0,40.1,30.06,West,270,0.0,0.0,74,0.00,,,0.00,WUHU21623XXSP,2013-02-12 15:27:00,
2013-02-12 10:32:00,48.6,39.9,30.06,WSW,247,0.0,0.0,72,0.00,,,0.00,WUHU21623XXSP,2013-02-12 15:32:00,
2013-02-12 10:37:00,49.1,39.0,30.05,NNW,337,0.0,0.0,68,0.00,,,0.00,WUHU21623XXSP,2013-02-12 15:37:00,
2013-02-12 10:42:00,49.6,39.5,30.05,NNW,337,0.0,0.0,68,0.00,,,0.00,WUHU21623XXSP,2013-02-12 15:42:00,
2013-02-12 10:47:00,50.2,39.6,30.05,NNW,337,0.0,0.0,67,0.00,,,0.00,WUHU21623XXSP,2013-02-12 15:47:00,
2013-02-12 10:52:00,50.7,39.6,30.06,NNW,337,0.0,0.0,66,0.00,,,0.00,WUHU21623XXSP,2013-02-12 15:52:00,
2013-02-12 10:57:00,51.4,39.6,30.06,NW,315,0.0,0.0,64,0.00,,,0.00,WUHU21623XXSP,2013-02-12 15:57:00,
2013-02-12 11:02:00,52.0,38.9,30.06,NW,315,0.0,0.0,61,0.00,,,0.00,WUHU21623XXSP,2013-02-12 16:02:00,
2013-02-12 11:07:00,52.7,40.4,30.06,NW,315,0.0,0.0,63,0.00,,,0.00,WUHU21623XXSP,2013-02-12 16:07:00,
2013-02-12 11:12:00,52.9,40.2,30.04,NNW,337,0.0,0.0,62,0.00,,,0.00,WUHU21623XXSP,2013-02-12 16:12:00,
2013-02-12 11:17:00,53.2,40.2,30.03,NNW,337,0.0,0.0,61,0.00,,,0.00,WUHU21623XXSP,2013-02-12 16:17:00,
2013-02-12 11:22:00,53.4,40.3,30.04,NNW,337,0.0,0.0,61,0.00,,,0.00,WUHU21623XXSP,2013-02-12 16:22:00,
2013-02-12 11:27:00,54.1,41.0,30.05,WSW,247,0.0,0.0,61,0.00,,,0.00,WUHU21623XXSP,2013-02-12 16:27:00,
2013-02-12 11:32:00,54.5,41.1,30.06,WSW,247,0.0,0.0,60,0.00,,,0.00,WUHU21623XXSP,2013-02-12 16:32:00,
2013-02-12 11:37:00,55.0,41.2,30.07,WSW,247,0.0,0.0,58,0.00,,,0.00,WUHU21623XXSP,2013-02-12 16:37:00,
2013-02-12 11:42:00,55.2,40.2,30.07,WSW,247,0.0,0.0,57,0.00,,,0.00,WUHU21623XXSP,2013-02-12 16:42:00,
2013-02-12 11:47:00,55.2,40.2,30.06,WSW,247,0.0,0.0,57,0.00,,,0.00,WUHU21623XXSP,2013-02-12 16:47:00,
2013-02-12 11:52:00,55.4,40.3,30.06,WSW,247,0.0,0.0,57,0.00,,,0.00,WUHU21623XXSP,2013-02-12 16:52:00,
2013-02-12 11:57:00,55.6,40.0,30.07,WSW,247,0.0,0.0,56,0.00,,,0.00,WUHU21623XXSP,2013-02-12 16:57:00,
2013-02-12 12:02:00,55.6,40.0,30.07,WSW,247,0.0,0.0,55,0.00,,,0.00,WUHU21623XXSP,2013-02-12 17:02:00,
2013-02-12 12:07:00,55.2,39.4,30.07,WSW,247,0.0,0.0,55,0.00,,,0.00,WUHU21623XXSP,2013-02-12 17:07:00,
2013-02-12 12:12:00,55.2,39.2,30.06,WSW,247,0.0,0.0,55,0.00,,,0.00,WUHU21623XXSP,2013-02-12 17:12:00,
2013-02-12 12:17:00,55.2,39.2,30.06,WSW,247,0.0,0.0,55,0.00,,,0.00,WUHU21623XXSP,2013-02-12 17:17:00,
2013-02-12 12:22:00,54.7,38.9,30.05,WSW,247,0.0,0.0,56,0.00,,,0.00,WUHU21623XXSP,2013-02-12 17:22:00,
2013-02-12 12:27:00,54.7,38.7,30.05,WSW,247,0.0,0.0,55,0.00,,,0.00,WUHU21623XXSP,2013-02-12 17:27:00,
2013-02-12 12:32:00,54.5,38.6,30.05,WSW,247,0.0,0.0,55,0.00,,,0.00,WUHU21623XXSP,2013-02-12 17:32:00,
2013-02-12 12:37:00,54.3,38.6,30.05,WSW,247,0.0,0.0,55,0.00,,,0.00,WUHU21623XXSP,2013-02-12 17:37:00,
2013-02-12 12:42:00,54.1,37.9,30.04,WSW,247,0.0,0.0,53,0.00,,,0.00,WUHU21623XXSP,2013-02-12 17:42:00,
2013-02-12 12:47:00,54.1,37.3,30.04,WSW,247,0.0,0.0,53,0.00,,,0.00,WUHU21623XXSP,2013-02-12 17:47:00,
2013-02-12 12:52:00,54.0,37.6,30.04,WSW,247,0.0,0.0,54,0.00,,,0.00,WUHU21623XXSP,2013-02-12 17:52:00,
2013-02-12 12:57:00,53.8,37.6,30.04,WSW,247,0.0,0.0,53,0.00,,,0.00,WUHU21623XXSP,2013-02-12 17:57:00,
2013-02-12 13:03:00,53.8,37.0,30.03,West,270,0.0,0.0,53,0.00,,,0.00,WUHU21623XXSP,2013-02-12 18:03:00,
2013-02-12 13:08:00,53.8,37.5,30.03,West,270,0.0,0.0,54,0.00,,,0.00,WUHU21623XXSP,2013-02-12 18:08:00,
2013-02-12 13:14:00,54.0,37.1,30.04,West,270,0.0,0.0,53,0.00,,,0.00,WUHU21623XXSP,2013-02-12 18:14:00,
2013-02-12 13:19:00,54.1,37.6,30.04,West,270,0.0,0.0,54,0.00,,,0.00,WUHU21623XXSP,2013-02-12 18:19:00,
2013-02-12 13:24:00,54.3,37.9,30.04,West,270,0.0,0.0,54,0.00,,,0.00,WUHU21623XXSP,2013-02-12 18:24:00,
2013-02-12 13:29:00,54.3,37.5,30.03,West,270,0.0,0.0,53,0.00,,,0.00,WUHU21623XXSP,2013-02-12 18:29:00,
2013-02-12 13:34:00,54.1,37.3,30.02,West,270,0.0,0.0,53,0.00,,,0.00,WUHU21623XXSP,2013-02-12 18:34:00,
2013-02-12 13:39:00,54.1,37.3,30.02,West,270,0.0,0.0,53,0.00,,,0.00,WUHU21623XXSP,2013-02-12 18:39:00,
2013-02-12 13:45:00,54.0,37.1,30.02,West,270,0.0,0.0,53,0.00,,,0.00,WUHU21623XXSP,2013-02-12 18:45:00,
2013-02-12 13:50:00,53.8,36.5,30.01,West,270,0.0,0.0,52,0.00,,,0.00,WUHU21623XXSP,2013-02-12 18:50:00,
2013-02-12 13:55:00,53.6,37.0,30.01,West,270,0.0,0.0,53,0.00,,,0.00,WUHU21623XXSP,2013-02-12 18:55:00,
2013-02-12 14:00:00,53.4,36.2,30.01,West,270,0.0,0.0,52,0.00,,,0.00,WUHU21623XXSP,2013-02-12 19:00:00,
2013-02-12 14:05:00,53.4,36.6,30.01,West,270,0.0,0.0,53,0.00,,,0.00,WUHU21623XXSP,2013-02-12 19:05:00,
2013-02-12 14:10:00,53.2,36.5,30.00,West,270,0.0,0.0,53,0.00,,,0.00,WUHU21623XXSP,2013-02-12 19:10:00,
2013-02-12 14:15:00,52.9,36.3,30.01,West,270,0.0,0.0,53,0.00,,,0.00,WUHU21623XXSP,2013-02-12 19:15:00,
2013-02-12 14:20:00,52.7,36.1,30.01,West,270,0.0,0.0,54,0.00,,,0.00,WUHU21623XXSP,2013-02-12 19:20:00,
2013-02-12 14:25:00,52.5,36.3,30.01,West,270,0.0,0.0,54,0.00,,,0.00,WUHU21623XXSP,2013-02-12 19:25:00,
2013-02-12 14:30:00,52.3,36.1,30.02,West,270,0.0,0.0,54,0.00,,,0.00,WUHU21623XXSP,2013-02-12 19:30:00,
2013-02-12 14:36:00,52.2,36.1,30.02,West,270,0.0,0.0,54,0.00,,,0.00,WUHU21623XXSP,2013-02-12 19:36:00,
2013-02-12 14:41:00,51.8,36.0,30.02,West,270,0.0,0.0,55,0.00,,,0.00,WUHU21623XXSP,2013-02-12 19:41:00,
2013-02-12 14:46:00,51.6,36.3,30.02,West,270,0.0,0.0,56,0.00,,,0.00,WUHU21623XXSP,2013-02-12 19:46:00,
2013-02-12 14:51:00,51.6,36.3,30.01,West,270,0.0,0.0,56,0.00,,,0.00,WUHU21623XXSP,2013-02-12 19:51:00,
2013-02-12 14:56:00,51.6,36.3,30.01,West,270,0.0,0.0,56,0.00,,,0.00,WUHU21623XXSP,2013-02-12 19:56:00,
2013-02-12 15:01:00,51.6,36.8,30.01,West,270,0.0,0.0,57,0.00,,,0.00,WUHU21623XXSP,2013-02-12 20:01:00,
2013-02-12 15:06:00,51.4,36.6,30.01,West,270,0.0,0.0,57,0.00,,,0.00,WUHU21623XXSP,2013-02-12 20:06:00,
2013-02-12 15:11:00,51.4,37.1,30.01,West,270,0.0,0.0,57,0.00,,,0.00,WUHU21623XXSP,2013-02-12 20:11:00,
2013-02-12 15:16:00,51.3,36.5,30.01,West,270,0.0,0.0,57,0.00,,,0.00,WUHU21623XXSP,2013-02-12 20:16:00,
2013-02-12 15:21:00,51.3,36.5,30.01,West,270,0.0,0.0,57,0.00,,,0.00,WUHU21623XXSP,2013-02-12 20:21:00,
2013-02-12 15:26:00,51.1,36.8,30.00,West,270,0.0,0.0,57,0.00,,,0.00,WUHU21623XXSP,2013-02-12 20:26:00,
2013-02-12 15:31:00,50.9,36.6,30.00,West,270,0.0,0.0,58,0.00,,,0.00,WUHU21623XXSP,2013-02-12 20:31:00,
2013-02-12 15:37:00,50.7,36.4,30.00,West,270,0.0,0.0,59,0.00,,,0.00,WUHU21623XXSP,2013-02-12 20:37:00,
2013-02-12 15:42:00,50.5,36.7,30.00,West,270,0.0,0.0,59,0.00,,,0.00,WUHU21623XXSP,2013-02-12 20:42:00,
2013-02-12 15:47:00,50.5,36.7,29.99,West,270,0.0,0.0,59,0.00,,,0.00,WUHU21623XXSP,2013-02-12 20:47:00,
2013-02-12 15:52:00,50.5,37.2,29.99,West,270,0.0,0.0,60,0.00,,,0.00,WUHU21623XXSP,2013-02-12 20:52:00,
2013-02-12 15:57:00,50.5,37.2,30.00,West,270,0.0,0.0,60,0.00,,,0.00,WUHU21623XXSP,2013-02-12 20:57:00,
2013-02-12 16:02:00,50.7,37.3,29.99,West,270,0.0,0.0,61,0.00,,,0.00,WUHU21623XXSP,2013-02-12 21:02:00,
2013-02-12 16:07:00,50.7,37.7,29.99,West,270,0.0,0.0,61,0.00,,,0.00,WUHU21623XXSP,2013-02-12 21:07:00,
2013-02-12 16:12:00,50.7,37.7,29.98,West,270,0.0,0.0,61,0.00,,,0.00,WUHU21623XXSP,2013-02-12 21:12:00,
2013-02-12 16:17:00,50.9,37.5,29.98,West,270,0.0,0.0,60,0.00,,,0.00,WUHU21623XXSP,2013-02-12 21:17:00,
2013-02-12 16:22:00,51.1,37.7,29.99,West,270,0.0,0.0,60,0.00,,,0.00,WUHU21623XXSP,2013-02-12 21:22:00,
2013-02-12 16:28:00,50.9,37.5,29.99,West,270,0.0,0.0,60,0.00,,,0.00,WUHU21623XXSP,2013-02-12 21:28:00,
2013-02-12 16:33:00,50.9,37.9,30.00,West,270,0.0,0.0,61,0.00,,,0.00,WUHU21623XXSP,2013-02-12 21:33:00,
2013-02-12 16:38:00,50.7,37.7,30.00,West,270,0.0,0.0,61,0.00,,,0.00,WUHU21623XXSP,2013-02-12 21:38:00,
2013-02-12 16:43:00,50.4,37.6,29.99,West,270,0.0,0.0,61,0.00,,,0.00,WUHU21623XXSP,2013-02-12 21:43:00,
2013-02-12 16:48:00,50.2,37.2,29.98,West,270,0.0,0.0,61,0.00,,,0.00,WUHU21623XXSP,2013-02-12 21:48:00,
2013-02-12 16:53:00,49.8,37.2,29.96,West,270,0.0,0.0,61,0.00,,,0.00,WUHU21623XXSP,2013-02-12 21:53:00,
2013-02-12 16:58:00,49.6,37.1,29.94,West,270,0.0,0.0,62,0.00,,,0.00,WUHU21623XXSP,2013-02-12 21:58:00,
2013-02-12 17:03:00,49.5,37.0,29.94,West,270,0.0,0.0,62,0.00,,,0.00,WUHU21623XXSP,2013-02-12 22:03:00,
2013-02-12 17:08:00,49.3,37.2,29.94,West,270,0.0,0.0,63,0.00,,,0.00,WUHU21623XXSP,2013-02-12 22:08:00,
2013-02-12 17:13:00,49.3,37.6,29.92,West,270,0.0,0.0,64,0.00,,,0.00,WUHU21623XXSP,2013-02-12 22:13:00,
2013-02-12 17:18:00,48.9,37.2,29.92,West,270,0.0,0.0,64,0.00,,,0.00,WUHU21623XXSP,2013-02-12 22:18:00,
2013-02-12 17:23:00,48.7,37.5,29.91,West,270,0.0,0.0,65,0.00,,,0.00,WUHU21623XXSP,2013-02-12 22:23:00,
2013-02-12 17:28:00,48.4,37.1,29.92,West,270,0.0,0.0,65,0.00,,,0.00,WUHU21623XXSP,2013-02-12 22:28:00,
2013-02-12 17:33:00,48.4,37.1,29.92,West,270,0.0,0.0,65,0.00,,,0.00,WUHU21623XXSP,2013-02-12 22:33:00,
2013-02-12 17:38:00,48.2,37.0,29.92,West,270,0.0,0.0,65,0.00,,,0.00,WUHU21623XXSP,2013-02-12 22:38:00,
2013-02-12 17:43:00,48.0,36.4,29.92,West,270,0.0,0.0,64,0.00,,,0.00,WUHU21623XXSP,2013-02-12 22:43:00,
2013-02-12 17:48:00,48.0,36.4,29.92,West,270,0.0,0.0,64,0.00,,,0.00,WUHU21623XXSP,2013-02-12 22:48:00,
2013-02-12 17:53:00,48.0,36.4,29.93,West,270,0.0,0.0,64,0.00,,,0.00,WUHU21623XXSP,2013-02-12 22:53:00,
2013-02-12 17:58:00,47.8,37.1,29.93,West,270,0.0,0.0,66,0.00,,,0.00,WUHU21623XXSP,2013-02-12 22:58:00,
2013-02-12 18:03:00,47.5,37.0,29.93,West,270,0.0,0.0,67,0.00,,,0.00,WUHU21623XXSP,2013-02-12 23:03:00,
2013-02-12 18:10:00,47.3,36.9,29.94,West,270,0.0,0.0,67,0.00,,,0.00,WUHU21623XXSP,2013-02-12 23:10:00,
2013-02-12 18:15:00,47.1,37.1,29.95,West,270,0.0,0.0,68,0.00,,,0.00,WUHU21623XXSP,2013-02-12 23:15:00,
2013-02-12 18:20:00,46.6,38.1,29.96,West,270,0.0,0.0,72,0.00,,,0.00,WUHU21623XXSP,2013-02-12 23:20:00,
2013-02-12 18:25:00,46.2,37.7,29.97,West,270,0.0,0.0,72,0.00,,,0.00,WUHU21623XXSP,2013-02-12 23:25:00,
2013-02-12 18:30:00,46.0,38.1,29.97,West,270,0.0,0.0,74,0.00,,,0.00,WUHU21623XXSP,2013-02-12 23:30:00,
2013-02-12 18:35:00,45.7,38.2,29.98,West,270,0.0,0.0,75,0.00,,,0.00,WUHU21623XXSP,2013-02-12 23:35:00,
2013-02-12 18:40:00,45.3,38.2,29.98,West,270,0.0,0.0,76,0.00,,,0.00,WUHU21623XXSP,2013-02-12 23:40:00,
2013-02-12 18:45:00,45.0,38.2,29.97,West,270,0.0,0.0,77,0.00,,,0.00,WUHU21623XXSP,2013-02-12 23:45:00,
2013-02-12 18:50:00,44.4,38.0,29.97,West,270,0.0,0.0,78,0.00,,,0.00,WUHU21623XXSP,2013-02-12 23:50:00,
2013-02-12 18:55:00,44.4,38.3,29.97,West,270,0.0,0.0,79,0.00,,,0.00,WUHU21623XXSP,2013-02-12 23:55:00,
2013-02-12 19:00:00,44.1,38.3,29.97,West,270,0.0,0.0,80,0.04,,,0.00,WUHU21623XXSP,2013-02-13 00:00:00,
2013-02-12 19:05:00,43.9,38.1,29.96,West,270,0.0,0.0,80,0.04,,,0.04,WUHU21623XXSP,2013-02-13 00:05:00,
2013-02-12 19:11:00,43.7,37.9,29.95,West,270,0.0,0.0,80,0.04,,,0.04,WUHU21623XXSP,2013-02-13 00:11:00,
2013-02-12 19:16:00,43.5,37.9,29.95,West,270,0.0,0.0,80,0.04,,,0.04,WUHU21623XXSP,2013-02-13 00:16:00,
2013-02-12 19:21:00,43.5,37.8,29.94,West,270,0.0,0.0,80,0.04,,,0.04,WUHU21623XXSP,2013-02-13 00:21:00,
2013-02-12 19:26:00,43.5,37.8,29.94,West,270,0.0,0.0,80,0.04,,,0.04,WUHU21623XXSP,2013-02-13 00:26:00,
2013-02-12 19:31:00,43.5,37.8,29.93,West,270,0.0,0.0,80,0.04,,,0.04,WUHU21623XXSP,2013-02-13 00:31:00,
2013-02-12 19:36:00,43.3,37.8,29.92,West,270,0.0,0.0,80,0.04,,,0.04,WUHU21623XXSP,2013-02-13 00:36:00,
2013-02-12 19:41:00,43.3,37.9,29.94,West,270,0.0,0.0,81,0.04,,,0.04,WUHU21623XXSP,2013-02-13 00:41:00,
2013-02-12 19:46:00,43.3,37.9,29.94,West,270,0.0,0.0,81,0.06,,,0.04,WUHU21623XXSP,2013-02-13 00:46:00,
2013-02-12 19:52:00,43.3,37.9,29.94,West,270,0.0,0.0,81,0.06,,,0.06,WUHU21623XXSP,2013-02-13 00:52:00,
2013-02-12 19:57:00,43.3,37.9,29.94,West,270,0.0,0.0,81,0.06,,,0.06,WUHU21623XXSP,2013-02-13 00:57:00,
2013-02-12 20:03:00,43.3,37.9,29.94,West,270,0.0,0.0,81,0.02,,,0.06,WUHU21623XXSP,2013-02-13 01:03:00,
2013-02-12 20:08:00,43.3,37.9,29.93,West,270,0.0,0.0,81,0.02,,,0.06,WUHU21623XXSP,2013-02-13 01:08:00,
2013-02-12 20:13:00,43.2,38.0,29.93,West,270,0.0,0.0,82,0.02,,,0.06,WUHU21623XXSP,2013-02-13 01:13:00,
2013-02-12 20:18:00,43.2,38.0,29.93,West,270,0.0,0.0,82,0.02,,,0.06,WUHU21623XXSP,2013-02-13 01:18:00,
2013-02-12 20:23:00,43.2,38.0,29.93,West,270,0.0,0.0,82,0.02,,,0.06,WUHU21623XXSP,2013-02-13 01:23:00,
2013-02-12 20:28:00,43.2,38.0,29.92,West,270,0.0,0.0,82,0.02,,,0.06,WUHU21623XXSP,2013-02-13 01:28:00,
2013-02-12 20:35:00,43.2,38.3,29.93,West,270,0.0,0.0,83,0.02,,,0.06,WUHU21623XXSP,2013-02-13 01:35:00,
2013-02-12 20:40:00,43.0,38.1,29.93,West,270,0.0,0.0,83,0.02,,,0.06,WUHU21623XXSP,2013-02-13 01:40:00,
2013-02-12 20:45:00,43.0,38.1,29.93,West,270,0.0,0.0,83,0.00,,,0.06,WUHU21623XXSP,2013-02-13 01:45:00,
2013-02-12 20:50:00,43.0,38.1,29.93,West,270,0.0,0.0,83,0.00,,,0.06,WUHU21623XXSP,2013-02-13 01:50:00,
2013-02-12 20:55:00,43.0,38.1,29.93,West,270,0.0,0.0,83,0.00,,,0.06,WUHU21623XXSP,2013-02-13 01:55:00,
2013-02-12 21:00:00,43.0,38.4,29.92,West,270,0.0,0.0,84,0.00,,,0.06,WUHU21623XXSP,2013-02-13 02:00:00,
2013-02-12 21:05:00,43.0,38.4,29.93,West,270,0.0,0.0,84,0.00,,,0.06,WUHU21623XXSP,2013-02-13 02:05:00,
2013-02-12 21:10:00,43.0,38.4,29.93,West,270,0.0,0.0,84,0.00,,,0.06,WUHU21623XXSP,2013-02-13 02:10:00,
2013-02-12 21:16:00,43.0,38.4,29.93,NNW,337,0.0,0.0,84,0.00,,,0.06,WUHU21623XXSP,2013-02-13 02:16:00,
2013-02-12 21:21:00,43.0,38.4,29.93,NNW,337,0.0,0.0,84,0.00,,,0.06,WUHU21623XXSP,2013-02-13 02:21:00,
2013-02-12 21:26:00,43.0,38.4,29.92,NNW,337,0.0,0.0,84,0.00,,,0.06,WUHU21623XXSP,2013-02-13 02:26:00,
2013-02-12 21:31:00,43.0,38.8,29.92,NNW,337,0.0,0.0,85,0.00,,,0.06,WUHU21623XXSP,2013-02-13 02:31:00,
2013-02-12 21:36:00,43.0,38.8,29.91,NNW,337,0.0,0.0,85,0.00,,,0.06,WUHU21623XXSP,2013-02-13 02:36:00,
2013-02-12 21:41:00,43.0,38.8,29.90,NNW,337,0.0,0.0,85,0.00,,,0.06,WUHU21623XXSP,2013-02-13 02:41:00,
2013-02-12 21:46:00,42.8,38.6,29.91,NNW,337,0.0,0.0,85,0.00,,,0.06,WUHU21623XXSP,2013-02-13 02:46:00,
2013-02-12 21:51:00,42.8,38.6,29.90,NNW,337,0.0,0.0,85,0.00,,,0.06,WUHU21623XXSP,2013-02-13 02:51:00,
2013-02-12 21:56:00,42.8,38.6,29.90,NNW,337,0.0,0.0,85,0.00,,,0.06,WUHU21623XXSP,2013-02-13 02:56:00,
2013-02-12 22:01:00,42.6,38.4,29.89,NNW,337,0.0,0.0,85,0.00,,,0.06,WUHU21623XXSP,2013-02-13 03:01:00,
2013-02-12 22:06:00,42.6,38.4,29.90,NNW,337,0.0,0.0,85,0.00,,,0.06,WUHU21623XXSP,2013-02-13 03:06:00,
2013-02-12 22:11:00,42.8,38.6,29.89,NNW,337,0.0,0.0,85,0.00,,,0.06,WUHU21623XXSP,2013-02-13 03:11:00,
2013-02-12 22:16:00,42.6,38.4,29.89,NNW,337,0.0,0.0,85,0.00,,,0.06,WUHU21623XXSP,2013-02-13 03:16:00,
2013-02-12 22:21:00,42.6,38.4,29.88,NNW,337,0.0,0.0,85,0.00,,,0.06,WUHU21623XXSP,2013-02-13 03:21:00,
2013-02-12 22:27:00,42.6,38.4,29.86,NNW,337,0.0,0.0,85,0.00,,,0.06,WUHU21623XXSP,2013-02-13 03:27:00,
2013-02-12 22:32:00,42.6,38.4,29.87,NNW,337,0.0,0.0,85,0.00,,,0.06,WUHU21623XXSP,2013-02-13 03:32:00,
2013-02-12 22:37:00,42.6,38.4,29.88,NNW,337,0.0,0.0,85,0.00,,,0.06,WUHU21623XXSP,2013-02-13 03:37:00,
2013-02-12 22:42:00,42.6,38.4,29.88,NNW,337,0.0,0.0,85,0.00,,,0.06,WUHU21623XXSP,2013-02-13 03:42:00,
2013-02-12 22:47:00,42.6,38.7,29.89,NNW,337,0.0,0.0,86,0.00,,,0.06,WUHU21623XXSP,2013-02-13 03:47:00,
2013-02-12 22:52:00,42.6,38.4,29.89,NNW,337,0.0,0.0,86,0.00,,,0.06,WUHU21623XXSP,2013-02-13 03:52:00,
2013-02-12 22:57:00,42.6,38.7,29.88,NNW,337,0.0,0.0,86,0.02,,,0.06,WUHU21623XXSP,2013-02-13 03:57:00,
2013-02-12 23:02:00,42.6,38.7,29.87,NNW,337,0.0,0.0,86,0.02,,,0.08,WUHU21623XXSP,2013-02-13 04:02:00,
2013-02-12 23:13:00,42.6,39.0,29.88,NNW,337,0.0,0.0,87,0.06,,,0.12,WUHU21623XXSP,2013-02-13 04:13:00,
2013-02-12 23:19:00,42.6,39.0,29.88,NNW,337,0.0,0.0,87,0.06,,,0.12,WUHU21623XXSP,2013-02-13 04:19:00,
2013-02-12 23:24:00,42.6,39.0,29.88,NNW,337,0.0,0.0,87,0.06,,,0.12,WUHU21623XXSP,2013-02-13 04:24:00,
2013-02-12 23:30:00,42.6,39.0,29.87,NNW,337,0.0,0.0,87,0.08,,,0.12,WUHU21623XXSP,2013-02-13 04:30:00,
2013-02-12 23:36:00,42.6,39.0,29.87,NNW,337,0.0,0.0,87,0.10,,,0.14,WUHU21623XXSP,2013-02-13 04:36:00,
2013-02-12 23:41:00,42.6,39.0,29.88,NNW,337,0.0,0.0,87,0.10,,,0.17,WUHU21623XXSP,2013-02-13 04:41:00,
2013-02-12 23:47:00,42.4,39.0,29.86,NNW,337,0.0,0.0,87,0.12,,,0.19,WUHU21623XXSP,2013-02-13 04:47:00,
2013-02-12 23:54:00,42.4,38.8,29.86,NNW,337,0.0,0.0,87,0.12,,,0.19,WUHU21623XXSP,2013-02-13 04:54:00,